Regional Weather Roundup
Issued by NWS Cleveland, OH

Home | Current Version | Previous Version | Graphics & Text | Print | Product List | Glossary On
Versions: 1 2 3 4 5 6 7 8 9 10 11 12 13 14 15 16 17 18 19 20 21 22 23 24 25 26 27 28 29 30 31 32 33 34 35 36 37 38 39 40 41 42 43 44 45 46 47 48 49 50
000
ASUS41 KCLE 281510
RWRCLE
OHIO REGIONAL WEATHER ROUNDUP
NATIONAL WEATHER SERVICE WILMINGTON, OH
1000 AM EST SUN DEC 28 2014

NOTE: "FAIR" INDICATES FEW OR NO CLOUDS BELOW 12,000 FEET WITH NO
SIGNIFICANT WEATHER AND/OR OBSTRUCTIONS TO VISIBILITY.

OHZ001>008-015>018-024>027-034-035-043-044-281600-
   NORTHWEST OHIO

CITY           SKY/WX    TMP DP  RH WIND       PRES   REMARKS
DEFIANCE       CLOUDY    36  28  73 VRB5      30.14R
FINDLAY        CLOUDY    36  31  82 W8        30.10R
TOLEDO EXPRESS CLOUDY    35  30  82 W9        30.11R WCI  28
TOLEDO METCALF CLOUDY    37  30  75 W10       30.12R
LIMA           CLOUDY    35  31  85 W9        30.12R WCI  28
$$

OHZ009>014-019>023-028>033-038-089-281600-
   NORTHEAST OHIO

CITY           SKY/WX    TMP DP  RH WIND       PRES   REMARKS
CLE-HOPKINS    CLOUDY    36  31  82 W10       30.10R
CLE-LAKEFRONT  CLOUDY    37  34  89 W13       30.08R
CUY CO. ARPT   CLOUDY    37  34  87 W12       30.07R
LORAIN-ELYRIA  CLOUDY    35 N/A N/A NW10      30.09R WCI  27
ASHTABULA      CLOUDY    36  32  85 NW6       30.05S
AKRON-CANTON   CLOUDY    36  31  82 NW8       30.06R
WOOSTER        PTSUNNY   35  31  85 NW8       30.07R WCI  29
MANSFIELD      CLOUDY    34  31  88 W7        30.07R WCI  28
YOUNGSTOWN     CLOUDY    36  34  92 NW9       30.04R
$$

OHZ042-051>053-060>062-070>072-077>081-281600-
  SOUTHWEST OHIO

CITY           SKY/WX    TMP DP  RH WIND       PRES   REMARKS
CINC-COVINGTON FOG       34  30  85 N9        30.15R VSB 1   WCI  27
CINC-LUNKEN    CLOUDY    36  33  89 N7        30.18R
HAMILTON       CLOUDY    35  30  82 NW8       30.17R WCI  29
DAYTON         CLOUDY    34  31  88 NW8       30.13R WCI  27
WRIGHT-PAT AFB CLOUDY    34  30  83 NW8       30.13S WCI  28
DAYTON GENERAL CLOUDY    34  29  82 N7        30.12R WCI  28
WILMINGTON     CLOUDY    34  31  88 N10       30.11S FOG     WCI  26
$$

OHZ036-037-039>041-045>050-054>059-063>069-073>076-082>088-281600-
  CENTRAL AND SOUTHEAST OHIO

CITY           SKY/WX    TMP DP  RH WIND       PRES   REMARKS
COLUMBUS       CLOUDY    35  35 100 N8        30.11R WCI  29
OSU AIRPORT    CLOUDY    36  31  82 N7        30.11R
BOLTON FIELD   CLOUDY    36  32  87 N12       30.12R
RICKENBACK AFB CLOUDY    36  33  89 NW9       30.11R
NEWARK         CLOUDY    36  33  89 NW5       30.11R
MARION         CLOUDY    35  30  82 NW8       30.10R WCI  29
LANCASTER      CLOUDY    37  35  92 NW9       30.12R FOG
ZANESVILLE     CLOUDY    37  33  85 NW7       30.10R
NEW PHILLY     CLOUDY    37  33  85 NW8       30.09R
$$



USA.gov is the U.S. government's official web portal to all federal, state and local government web resources and services.